Eveleth, MN

2:25 PM CST on January 24, 2017 (GMT -0600)
Eveleth-Virginia Municipal

Weather History for KEVM - July, 2013

Change the Weather History Date:

Wednesday, July 3, 2013

  Actual Average Record
Temperature  
Mean Temperature 58 °F -  
Max Temperature 73 °F 73 °F 93 °F (1990)
Min Temperature 42 °F 51 °F 42 °F (2000)
Degree Days  
Heating Degree Days 8    
Growing Degree Days 8 (Base 50)    
Moisture  
Dew Point 47 °F    
Average Humidity 77    
Maximum Humidity 94    
Minimum Humidity 46    
Precipitation  
Precipitation 0.00 in - - ()
Sea Level Pressure  
Sea Level Pressure 30.07 in    
Wind  
Wind Speed 0 mph (SW)    
Max Wind Speed 5 mph    
Max Gust Speed -    
Visibility 10 miles    
Events      
Averages and records for this station are not official NWS values.
T = Trace of Precipitation, MM = Missing Value Source: NWS Daily Summary

Daily Weather History Graph

Daily Weather History Graph

Search for Another Location

Airport or City:

Trip Planner

Search our weather history database for the weather conditions in past years. The results will help you decide how hot, cold, wet, or windy it might be!

Date:

Astronomy

Jul. 03, 2013 Rise Set
Actual Time 5:18 AM CDT 9:09 PM CDT
Civil Twilight 4:38 AM CDT 9:49 PM CDT
Nautical Twilight 3:44 AM CDT 10:44 PM CDT
Astronomical Twilight 2:22 AM CDT 12:04 AM CDT
Moon 2:05 AM CDT (7/3) 5:13 PM CDT (7/3)
Length of Visible Light 17h 10m
Length of Day
15h 51m
Waning Crescent, 18% of the Moon is Illuminated
Jul 3
Waning Crescent
Jul 8
New
Jul 15
First Quarter
Jul 22
Full
Jul 29
Last Quarter

Hourly Weather History & Observations

Time (CDT) Temp. Dew Point Humidity Pressure Visibility Wind Dir Wind Speed Gust Speed Precip Events Conditions
12:09 AM 51.8 °F 46.4 °F 82% 30.12 in 10.0 mi Calm Calm - N/A   Clear
12:28 AM 50.0 °F 46.4 °F 87% 30.12 in 10.0 mi Calm Calm - N/A   Clear
12:49 AM 50.0 °F 46.4 °F 87% 30.12 in 10.0 mi Calm Calm - N/A   Clear
1:09 AM 50.0 °F 44.6 °F 82% 30.12 in 10.0 mi Calm Calm - N/A   Clear
1:28 AM 46.4 °F 44.6 °F 93% 30.12 in 10.0 mi Calm Calm - N/A   Clear
1:49 AM 46.4 °F 42.8 °F 87% 30.11 in 10.0 mi Calm Calm - N/A   Clear
2:09 AM 44.6 °F 42.8 °F 93% 30.11 in 10.0 mi Calm Calm - N/A   Clear
2:28 AM 44.6 °F 42.8 °F 93% 30.11 in 10.0 mi Calm Calm - N/A   Clear
2:49 AM 44.6 °F 42.8 °F 93% 30.10 in 10.0 mi Calm Calm - N/A   Clear
3:09 AM 44.6 °F 41.0 °F 87% 30.10 in 10.0 mi Calm Calm - N/A   Clear
3:28 AM 44.6 °F 41.0 °F 87% 30.10 in 10.0 mi Calm Calm - N/A   Clear
3:49 AM 42.8 °F 41.0 °F 93% 30.09 in 10.0 mi Calm Calm - N/A   Clear
4:08 AM 44.6 °F 41.0 °F 87% 30.09 in 10.0 mi Calm Calm - N/A   Clear
4:28 AM 42.8 °F 41.0 °F 93% 30.09 in 10.0 mi Calm Calm - N/A   Clear
4:49 AM 42.8 °F 39.2 °F 87% 30.09 in 10.0 mi Calm Calm - N/A   Clear
5:08 AM 42.8 °F 41.0 °F 93% 30.09 in 10.0 mi Calm Calm - N/A   Clear
5:28 AM 42.8 °F 39.2 °F 87% 30.10 in 10.0 mi Calm Calm - N/A   Clear
5:49 AM 42.8 °F 41.0 °F 93% 30.10 in 10.0 mi Calm Calm - N/A   Clear
6:08 AM 42.8 °F 41.0 °F 93% 30.10 in 10.0 mi Calm Calm - N/A   Clear
6:28 AM 44.6 °F 42.8 °F 93% 30.10 in 10.0 mi Calm Calm - N/A   Clear
6:49 AM 50.0 °F 44.6 °F 82% 30.10 in 10.0 mi Calm Calm - N/A   Clear
7:09 AM 51.8 °F 44.6 °F 76% 30.10 in 10.0 mi Calm Calm - N/A   Clear
7:28 AM 53.6 °F 46.4 °F 77% 30.10 in 10.0 mi Calm Calm - N/A   Clear
7:49 AM 57.2 °F 44.6 °F 63% 30.10 in 10.0 mi Calm Calm - N/A   Clear
8:09 AM 59.0 °F 44.6 °F 59% 30.10 in 10.0 mi Calm Calm - N/A   Clear
8:29 AM 62.6 °F 44.6 °F 52% 30.10 in 10.0 mi Calm Calm - N/A   Clear
8:48 AM 62.6 °F 44.6 °F 52% 30.10 in 10.0 mi WSW 3.5 mph - N/A   Clear
9:09 AM 64.4 °F 46.4 °F 52% 30.10 in 10.0 mi WSW 3.5 mph - N/A   Clear
9:29 AM 64.4 °F 46.4 °F 52% 30.10 in 10.0 mi WSW 4.6 mph - N/A   Clear
9:48 AM 68.0 °F 46.4 °F 46% 30.09 in 10.0 mi Calm Calm - N/A   Clear
10:09 AM 69.8 °F 50.0 °F 49% 30.09 in 10.0 mi Calm Calm - N/A   Clear
10:29 AM 71.6 °F 51.8 °F 50% 30.08 in 10.0 mi Calm Calm - N/A   Clear
10:38 AM 71.6 °F 51.8 °F 50% 30.08 in 10.0 mi Calm Calm - N/A   Clear
8:25 PM 73.4 °F 53.6 °F 50% 29.98 in 10.0 mi South 3.5 mph - N/A   Clear
8:45 PM 69.8 °F 51.8 °F 53% 29.97 in 10.0 mi South 3.5 mph - N/A   Clear
9:05 PM 66.2 °F 53.6 °F 64% 29.98 in 10.0 mi Calm Calm - N/A   Clear
9:25 PM 62.6 °F 53.6 °F 72% 29.98 in 10.0 mi Calm Calm - N/A   Clear
9:45 PM 60.8 °F 53.6 °F 77% 29.98 in 10.0 mi Calm Calm - N/A   Clear
10:05 PM 60.8 °F 55.4 °F 82% 29.98 in 10.0 mi Calm Calm - N/A   Clear
10:25 PM 57.2 °F 53.6 °F 88% 29.98 in 10.0 mi Calm Calm - N/A   Clear
10:45 PM 57.2 °F 53.6 °F 88% 29.98 in 10.0 mi Calm Calm - N/A   Clear
11:05 PM 57.2 °F 55.4 °F 94% 29.98 in 10.0 mi Calm Calm - N/A   Clear
11:25 PM 57.2 °F 55.4 °F 94% 29.98 in 10.0 mi Calm Calm - N/A   Clear
11:45 PM 55.4 °F 53.6 °F 94% 29.98 in 10.0 mi Calm Calm - N/A   Clear